Time,TemperatureF,DewpointF,PressureIn,WindDirection,WindDirectionDegrees,WindSpeedMPH,WindSpeedGustMPH,Humidity,HourlyPrecipIn,Conditions,Clouds,dailyrainin,SoftwareType,DateUTC
2013-01-21 00:04:00,47.4,39.2,29.89,NE,45,0.0,0.0,73,0.00,,,0.00,WUHU216HW,2013-01-21 06:04:00,
2013-01-21 00:09:00,47.3,39.3,29.89,NE,45,0.0,0.0,74,0.00,,,0.00,WUHU216HW,2013-01-21 06:09:00,
2013-01-21 00:14:00,47.3,39.3,29.89,NE,45,0.0,0.0,74,0.00,,,0.00,WUHU216HW,2013-01-21 06:14:00,
2013-01-21 00:19:00,47.1,39.2,29.89,NE,45,0.0,0.0,74,0.00,,,0.00,WUHU216HW,2013-01-21 06:19:00,
2013-01-21 00:24:00,46.9,39.0,29.89,NE,45,0.0,0.0,74,0.00,,,0.00,WUHU216HW,2013-01-21 06:24:00,
2013-01-21 00:29:00,46.7,38.9,29.89,NE,45,0.0,0.0,74,0.00,,,0.00,WUHU216HW,2013-01-21 06:29:00,
2013-01-21 00:34:00,46.5,38.7,29.89,NE,45,0.0,0.0,74,0.00,,,0.00,WUHU216HW,2013-01-21 06:34:00,
2013-01-21 00:39:00,46.2,38.4,29.89,NE,45,0.0,0.0,74,0.00,,,0.00,WUHU216HW,2013-01-21 06:39:00,
2013-01-21 00:44:00,46.2,38.4,29.89,NE,45,0.0,0.0,74,0.00,,,0.00,WUHU216HW,2013-01-21 06:44:00,
2013-01-21 00:49:00,46.0,38.5,29.89,NE,45,0.0,0.0,75,0.00,,,0.00,WUHU216HW,2013-01-21 06:49:00,
2013-01-21 00:54:00,46.0,38.5,29.89,NE,45,0.0,0.0,75,0.00,,,0.00,WUHU216HW,2013-01-21 06:54:00,
2013-01-21 00:59:00,45.8,38.3,29.89,NE,45,0.0,0.0,75,0.00,,,0.00,WUHU216HW,2013-01-21 06:59:00,
2013-01-21 01:04:00,45.6,38.5,29.89,NE,45,0.0,0.0,76,0.00,,,0.00,WUHU216HW,2013-01-21 07:04:00,
2013-01-21 01:09:00,45.6,38.5,29.89,NE,45,0.0,0.0,76,0.00,,,0.00,WUHU216HW,2013-01-21 07:09:00,
2013-01-21 01:14:00,45.5,38.3,29.89,NE,45,0.0,0.0,76,0.00,,,0.00,WUHU216HW,2013-01-21 07:14:00,
2013-01-21 01:19:00,45.3,38.5,29.89,NE,45,0.0,0.0,77,0.00,,,0.00,WUHU216HW,2013-01-21 07:19:00,
2013-01-21 01:24:00,45.3,38.5,29.89,NE,45,0.0,0.0,77,0.00,,,0.00,WUHU216HW,2013-01-21 07:24:00,
2013-01-21 01:29:00,45.1,38.3,29.89,NE,45,0.0,0.0,77,0.00,,,0.00,WUHU216HW,2013-01-21 07:29:00,
2013-01-21 01:34:00,45.1,38.3,29.90,NE,45,0.0,0.0,77,0.00,,,0.00,WUHU216HW,2013-01-21 07:34:00,
2013-01-21 01:39:00,45.1,38.3,29.90,NE,45,0.0,0.0,77,0.00,,,0.00,WUHU216HW,2013-01-21 07:39:00,
2013-01-21 01:44:00,45.1,38.3,29.90,NE,45,0.0,0.0,77,0.00,,,0.00,WUHU216HW,2013-01-21 07:44:00,
2013-01-21 01:49:00,45.1,38.6,29.90,NE,45,0.0,0.0,77,0.00,,,0.00,WUHU216HW,2013-01-21 07:49:00,
2013-01-21 01:54:00,45.1,38.6,29.90,NE,45,0.0,0.0,78,0.00,,,0.00,WUHU216HW,2013-01-21 07:54:00,
2013-01-21 01:59:00,45.1,39.0,29.90,NE,45,0.0,0.0,79,0.00,,,0.00,WUHU216HW,2013-01-21 07:59:00,
2013-01-21 02:04:00,44.9,38.8,29.91,West,270,1.7,1.7,79,0.00,,,0.00,WUHU216HW,2013-01-21 08:04:00,
2013-01-21 02:09:00,44.9,38.8,29.90,WNW,293,0.0,1.7,79,0.00,,,0.00,WUHU216HW,2013-01-21 08:09:00,
2013-01-21 02:14:00,44.7,39.0,29.90,WNW,293,0.0,1.7,80,0.00,,,0.00,WUHU216HW,2013-01-21 08:14:00,
2013-01-21 02:19:00,44.4,38.8,29.90,WNW,293,0.0,0.0,80,0.00,,,0.00,WUHU216HW,2013-01-21 08:19:00,
2013-01-21 02:24:00,44.4,38.6,29.90,WNW,293,0.0,0.0,80,0.00,,,0.00,WUHU216HW,2013-01-21 08:24:00,
2013-01-21 02:29:00,44.4,38.6,29.91,WNW,293,0.0,0.0,80,0.00,,,0.00,WUHU216HW,2013-01-21 08:29:00,
2013-01-21 02:34:00,44.4,38.6,29.90,WNW,293,0.0,0.0,80,0.00,,,0.00,WUHU216HW,2013-01-21 08:34:00,
2013-01-21 02:39:00,44.4,38.6,29.91,WNW,293,0.0,0.0,80,0.00,,,0.00,WUHU216HW,2013-01-21 08:39:00,
2013-01-21 02:44:00,44.2,38.4,29.91,ENE,68,0.0,0.0,80,0.00,,,0.00,WUHU216HW,2013-01-21 08:44:00,
2013-01-21 02:49:00,44.2,38.4,29.90,ENE,68,0.0,0.0,80,0.00,,,0.00,WUHU216HW,2013-01-21 08:49:00,
2013-01-21 02:54:00,44.2,38.4,29.90,ENE,68,0.0,0.0,80,0.00,,,0.00,WUHU216HW,2013-01-21 08:54:00,
2013-01-21 02:59:00,44.0,38.3,29.91,ENE,68,0.0,0.0,80,0.00,,,0.00,WUHU216HW,2013-01-21 08:59:00,
2013-01-21 03:04:00,43.8,38.1,29.91,ENE,68,0.0,0.0,80,0.00,,,0.00,WUHU216HW,2013-01-21 09:04:00,
2013-01-21 03:09:00,43.8,38.1,29.91,ENE,68,0.0,0.0,80,0.00,,,0.00,WUHU216HW,2013-01-21 09:09:00,
2013-01-21 03:14:00,43.8,38.1,29.91,ENE,68,0.0,0.0,80,0.00,,,0.00,WUHU216HW,2013-01-21 09:14:00,
2013-01-21 03:19:00,43.8,38.2,29.91,ENE,68,0.0,0.0,81,0.00,,,0.00,WUHU216HW,2013-01-21 09:19:00,
2013-01-21 03:24:00,43.7,38.2,29.91,ENE,68,0.0,0.0,81,0.00,,,0.00,WUHU216HW,2013-01-21 09:24:00,
2013-01-21 03:29:00,43.5,38.0,29.91,ENE,68,0.0,0.0,81,0.00,,,0.00,WUHU216HW,2013-01-21 09:29:00,
2013-01-21 03:34:00,43.5,38.0,29.91,ENE,68,0.0,0.0,81,0.00,,,0.00,WUHU216HW,2013-01-21 09:34:00,
2013-01-21 03:39:00,43.3,37.8,29.91,ENE,68,0.0,0.0,81,0.00,,,0.00,WUHU216HW,2013-01-21 09:39:00,
2013-01-21 03:44:00,43.3,37.8,29.91,ENE,68,0.0,0.0,81,0.00,,,0.00,WUHU216HW,2013-01-21 09:44:00,
2013-01-21 03:49:00,43.1,37.7,29.91,ENE,68,0.0,0.0,81,0.00,,,0.00,WUHU216HW,2013-01-21 09:49:00,
2013-01-21 03:54:00,42.9,37.5,29.91,ENE,68,0.0,0.0,81,0.00,,,0.00,WUHU216HW,2013-01-21 09:54:00,
2013-01-21 03:59:00,42.9,37.5,29.91,ENE,68,0.0,0.0,81,0.00,,,0.00,WUHU216HW,2013-01-21 09:59:00,
2013-01-21 04:04:00,42.6,37.1,29.90,ENE,68,0.0,0.0,81,0.00,,,0.00,WUHU216HW,2013-01-21 10:04:00,
2013-01-21 04:09:00,42.6,37.1,29.91,ENE,68,0.0,0.0,81,0.00,,,0.00,WUHU216HW,2013-01-21 10:09:00,
2013-01-21 04:14:00,42.6,37.1,29.91,ENE,68,0.0,0.0,81,0.00,,,0.00,WUHU216HW,2013-01-21 10:14:00,
2013-01-21 04:19:00,42.4,36.9,29.91,ENE,68,0.0,0.0,81,0.00,,,0.00,WUHU216HW,2013-01-21 10:19:00,
2013-01-21 04:24:00,42.4,36.9,29.91,ENE,68,0.0,0.0,81,0.00,,,0.00,WUHU216HW,2013-01-21 10:24:00,
2013-01-21 04:29:00,42.0,36.6,29.91,ENE,68,0.0,0.0,81,0.00,,,0.00,WUHU216HW,2013-01-21 10:29:00,
2013-01-21 04:34:00,42.0,36.6,29.91,ENE,68,0.0,0.0,81,0.00,,,0.00,WUHU216HW,2013-01-21 10:34:00,
2013-01-21 04:39:00,41.9,36.4,29.91,ENE,68,0.0,0.0,81,0.00,,,0.00,WUHU216HW,2013-01-21 10:39:00,
2013-01-21 04:44:00,41.9,36.4,29.91,ENE,68,0.0,0.0,81,0.00,,,0.00,WUHU216HW,2013-01-21 10:44:00,
2013-01-21 04:49:00,41.9,36.2,29.91,ENE,68,0.0,0.0,81,0.00,,,0.00,WUHU216HW,2013-01-21 10:49:00,
2013-01-21 04:54:00,41.7,36.2,29.91,ENE,68,0.0,0.0,81,0.00,,,0.00,WUHU216HW,2013-01-21 10:54:00,
2013-01-21 04:59:00,41.7,36.2,29.92,ENE,68,0.0,0.0,81,0.00,,,0.00,WUHU216HW,2013-01-21 10:59:00,
2013-01-21 05:04:00,41.5,35.7,29.92,ENE,68,0.0,0.0,80,0.00,,,0.00,WUHU216HW,2013-01-21 11:04:00,
2013-01-21 05:09:00,41.3,35.9,29.92,ENE,68,0.0,0.0,81,0.00,,,0.00,WUHU216HW,2013-01-21 11:09:00,
2013-01-21 05:14:00,41.3,35.6,29.92,ENE,68,0.0,0.0,80,0.00,,,0.00,WUHU216HW,2013-01-21 11:14:00,
2013-01-21 05:19:00,41.1,35.4,29.92,ENE,68,0.0,0.0,80,0.00,,,0.00,WUHU216HW,2013-01-21 11:19:00,
2013-01-21 05:24:00,41.1,35.7,29.92,ENE,68,0.0,0.0,81,0.00,,,0.00,WUHU216HW,2013-01-21 11:24:00,
2013-01-21 05:29:00,41.0,35.5,29.92,ENE,68,0.0,0.0,81,0.00,,,0.00,WUHU216HW,2013-01-21 11:29:00,
2013-01-21 05:34:00,41.0,35.5,29.92,ENE,68,0.0,0.0,81,0.00,,,0.00,WUHU216HW,2013-01-21 11:34:00,
2013-01-21 05:39:00,40.8,35.3,29.92,ENE,68,0.0,0.0,81,0.00,,,0.00,WUHU216HW,2013-01-21 11:39:00,
2013-01-21 05:44:00,40.8,35.3,29.93,ENE,68,0.0,0.0,81,0.00,,,0.00,WUHU216HW,2013-01-21 11:44:00,
2013-01-21 05:49:00,40.8,35.3,29.92,ENE,68,0.0,0.0,81,0.00,,,0.00,WUHU216HW,2013-01-21 11:49:00,
2013-01-21 05:54:00,40.8,35.3,29.93,ENE,68,0.0,0.0,81,0.00,,,0.00,WUHU216HW,2013-01-21 11:54:00,
2013-01-21 05:59:00,40.8,35.3,29.93,ENE,68,0.0,0.0,81,0.00,,,0.00,WUHU216HW,2013-01-21 11:59:00,
2013-01-21 06:04:00,40.6,35.5,29.93,ENE,68,0.0,0.0,82,0.00,,,0.00,WUHU216HW,2013-01-21 12:04:00,
2013-01-21 06:09:00,40.8,35.6,29.93,ENE,68,0.0,0.0,82,0.00,,,0.00,WUHU216HW,2013-01-21 12:09:00,
2013-01-21 06:14:00,40.8,35.6,29.94,ENE,68,0.0,0.0,82,0.00,,,0.00,WUHU216HW,2013-01-21 12:14:00,
2013-01-21 06:19:00,40.6,35.5,29.94,ENE,68,0.0,0.0,82,0.00,,,0.00,WUHU216HW,2013-01-21 12:19:00,
2013-01-21 06:24:00,40.6,35.5,29.94,ENE,68,0.0,0.0,82,0.00,,,0.00,WUHU216HW,2013-01-21 12:24:00,
2013-01-21 06:29:00,40.6,35.5,29.94,ENE,68,0.0,0.0,82,0.00,,,0.00,WUHU216HW,2013-01-21 12:29:00,
2013-01-21 06:34:00,40.6,35.5,29.94,ENE,68,0.0,0.0,82,0.00,,,0.00,WUHU216HW,2013-01-21 12:34:00,
2013-01-21 06:39:00,40.6,35.8,29.94,ENE,68,0.0,0.0,83,0.00,,,0.00,WUHU216HW,2013-01-21 12:39:00,
2013-01-21 06:44:00,40.6,35.5,29.94,ENE,68,0.0,0.0,82,0.00,,,0.00,WUHU216HW,2013-01-21 12:44:00,
2013-01-21 06:49:00,40.6,35.8,29.94,ENE,68,0.0,0.0,83,0.00,,,0.00,WUHU216HW,2013-01-21 12:49:00,
2013-01-21 06:54:00,40.8,35.9,29.95,ENE,68,0.0,0.0,83,0.00,,,0.00,WUHU216HW,2013-01-21 12:54:00,
2013-01-21 06:59:00,40.8,35.9,29.95,ENE,68,0.0,0.0,83,0.00,,,0.00,WUHU216HW,2013-01-21 12:59:00,
2013-01-21 07:04:00,40.8,35.9,29.95,ENE,68,0.0,0.0,83,0.00,,,0.00,WUHU216HW,2013-01-21 13:04:00,
2013-01-21 07:09:00,40.8,35.9,29.95,ENE,68,0.0,0.0,83,0.00,,,0.00,WUHU216HW,2013-01-21 13:09:00,
2013-01-21 07:14:00,40.8,35.9,29.95,ENE,68,0.0,0.0,83,0.00,,,0.00,WUHU216HW,2013-01-21 13:14:00,
2013-01-21 07:19:00,40.8,35.9,29.95,ENE,68,0.0,0.0,83,0.00,,,0.00,WUHU216HW,2013-01-21 13:19:00,
2013-01-21 07:24:00,40.8,35.9,29.96,ENE,68,0.0,0.0,83,0.00,,,0.00,WUHU216HW,2013-01-21 13:24:00,
2013-01-21 07:29:00,40.6,35.8,29.96,ENE,68,0.0,0.0,83,0.00,,,0.00,WUHU216HW,2013-01-21 13:29:00,
2013-01-21 07:34:00,40.6,35.8,29.96,ENE,68,0.0,0.0,83,0.00,,,0.00,WUHU216HW,2013-01-21 13:34:00,
2013-01-21 07:39:00,40.6,35.8,29.96,ENE,68,0.0,0.0,83,0.00,,,0.00,WUHU216HW,2013-01-21 13:39:00,
2013-01-21 07:44:00,40.6,35.8,29.96,ENE,68,0.0,0.0,83,0.00,,,0.00,WUHU216HW,2013-01-21 13:44:00,
2013-01-21 07:49:00,40.6,35.8,29.97,ENE,68,0.0,0.0,83,0.00,,,0.00,WUHU216HW,2013-01-21 13:49:00,
2013-01-21 07:54:00,40.6,35.8,29.97,ENE,68,0.0,0.0,83,0.00,,,0.00,WUHU216HW,2013-01-21 13:54:00,
2013-01-21 07:59:00,40.8,35.9,29.97,ENE,68,0.0,0.0,83,0.00,,,0.00,WUHU216HW,2013-01-21 13:59:00,
2013-01-21 08:04:00,41.1,36.3,29.97,ENE,68,0.0,0.0,83,0.00,,,0.00,WUHU216HW,2013-01-21 14:04:00,
2013-01-21 08:09:00,41.7,37.1,29.98,WSW,248,0.0,0.0,84,0.00,,,0.00,WUHU216HW,2013-01-21 14:09:00,
2013-01-21 08:14:00,42.0,37.5,29.97,WSW,248,0.0,0.0,84,0.00,,,0.00,WUHU216HW,2013-01-21 14:14:00,
2013-01-21 08:19:00,42.6,38.0,29.97,West,270,0.0,0.0,84,0.00,,,0.00,WUHU216HW,2013-01-21 14:19:00,
2013-01-21 08:24:00,43.1,38.6,29.97,WSW,248,0.0,0.0,84,0.00,,,0.00,WUHU216HW,2013-01-21 14:24:00,
2013-01-21 08:29:00,43.5,38.9,29.98,WSW,248,0.0,0.0,84,0.00,,,0.00,WUHU216HW,2013-01-21 14:29:00,
2013-01-21 08:34:00,44.9,40.4,29.98,WSW,248,0.0,1.3,84,0.00,,,0.00,WUHU216HW,2013-01-21 14:34:00,
2013-01-21 08:39:00,47.8,42.2,29.99,WSW,248,0.0,1.3,81,0.00,,,0.00,WUHU216HW,2013-01-21 14:39:00,
2013-01-21 08:44:00,51.4,44.4,29.98,WSW,248,0.0,0.0,77,0.00,,,0.00,WUHU216HW,2013-01-21 14:44:00,
2013-01-21 08:49:00,55.5,46.0,29.99,WSW,248,0.0,0.0,70,0.00,,,0.00,WUHU216HW,2013-01-21 14:49:00,
2013-01-21 08:54:00,57.9,46.5,29.99,WSW,248,1.1,1.1,66,0.00,,,0.00,WUHU216HW,2013-01-21 14:54:00,
2013-01-21 08:59:00,59.5,47.3,29.99,WSW,248,1.3,1.3,64,0.00,,,0.00,WUHU216HW,2013-01-21 14:59:00,
2013-01-21 09:04:00,60.0,47.0,29.99,WSW,248,0.0,1.3,62,0.00,,,0.00,WUHU216HW,2013-01-21 15:04:00,
2013-01-21 09:09:00,62.4,47.9,29.99,WSW,248,0.0,0.8,59,0.00,,,0.00,WUHU216HW,2013-01-21 15:09:00,
2013-01-21 09:14:00,65.1,49.4,29.99,WNW,293,0.0,0.0,57,0.00,,,0.00,WUHU216HW,2013-01-21 15:14:00,
2013-01-21 09:19:00,67.1,49.3,29.99,WSW,248,0.8,2.0,53,0.00,,,0.00,WUHU216HW,2013-01-21 15:19:00,
2013-01-21 09:24:00,67.8,49.0,30.00,West,270,0.6,2.0,51,0.00,,,0.00,WUHU216HW,2013-01-21 15:24:00,
2013-01-21 09:29:00,68.7,49.3,30.00,West,270,0.0,0.8,50,0.00,,,0.00,WUHU216HW,2013-01-21 15:29:00,
2013-01-21 09:34:00,69.4,49.4,30.00,WSW,248,1.7,1.7,49,0.00,,,0.00,WUHU216HW,2013-01-21 15:34:00,
2013-01-21 09:39:00,71.2,50.4,30.00,WSW,248,0.8,1.7,48,0.00,,,0.00,WUHU216HW,2013-01-21 15:39:00,
2013-01-21 09:44:00,71.9,50.5,30.00,WSW,248,0.0,0.8,47,0.00,,,0.00,WUHU216HW,2013-01-21 15:44:00,
2013-01-21 09:49:00,70.8,49.5,30.00,WNW,293,0.0,2.6,47,0.00,,,0.00,WUHU216HW,2013-01-21 15:49:00,
2013-01-21 09:54:00,71.2,49.8,30.01,WNW,293,1.1,2.6,47,0.00,,,0.00,WUHU216HW,2013-01-21 15:54:00,
2013-01-21 09:59:00,69.9,48.7,30.02,NE,45,0.8,1.5,47,0.00,,,0.00,WUHU216HW,2013-01-21 15:59:00,
2013-01-21 10:04:00,68.7,48.7,30.02,WNW,293,4.6,4.6,49,0.00,,,0.00,WUHU216HW,2013-01-21 16:04:00,
2013-01-21 10:09:00,66.0,47.4,30.02,West,270,2.6,4.6,51,0.00,,,0.00,WUHU216HW,2013-01-21 16:09:00,
2013-01-21 10:14:00,63.8,46.2,30.01,WSW,248,2.4,4.6,53,0.00,,,0.00,WUHU216HW,2013-01-21 16:14:00,
2013-01-21 10:19:00,61.1,45.8,30.01,SW,225,3.5,4.2,57,0.00,,,0.00,WUHU216HW,2013-01-21 16:19:00,
2013-01-21 10:24:00,60.0,45.7,30.01,NW,315,0.0,4.2,59,0.00,,,0.00,WUHU216HW,2013-01-21 16:24:00,
2013-01-21 10:29:00,59.7,45.8,30.01,WNW,293,8.0,8.0,60,0.00,,,0.00,WUHU216HW,2013-01-21 16:29:00,
2013-01-21 10:34:00,59.7,45.8,30.01,SW,225,1.5,8.0,60,0.00,,,0.00,WUHU216HW,2013-01-21 16:34:00,
2013-01-21 10:39:00,59.9,46.0,30.02,NW,315,1.7,2.0,60,0.00,,,0.00,WUHU216HW,2013-01-21 16:39:00,
2013-01-21 10:44:00,60.2,45.4,30.02,NE,45,0.0,1.7,58,0.00,,,0.00,WUHU216HW,2013-01-21 16:44:00,
2013-01-21 10:49:00,61.3,45.9,30.01,NNE,23,3.1,3.1,57,0.00,,,0.00,WUHU216HW,2013-01-21 16:49:00,
2013-01-21 10:54:00,61.5,45.6,30.01,NW,315,0.0,4.0,56,0.00,,,0.00,WUHU216HW,2013-01-21 16:54:00,
2013-01-21 10:59:00,61.8,45.4,30.01,North,0,5.1,5.1,55,0.00,,,0.00,WUHU216HW,2013-01-21 16:59:00,
2013-01-21 11:04:00,62.2,45.3,30.01,NW,315,5.5,5.5,54,0.00,,,0.00,WUHU216HW,2013-01-21 17:04:00,
2013-01-21 11:09:00,62.4,44.9,30.01,WSW,248,2.0,5.5,53,0.00,,,0.00,WUHU216HW,2013-01-21 17:09:00,
2013-01-21 11:14:00,62.4,44.9,30.01,WNW,293,3.3,5.5,53,0.00,,,0.00,WUHU216HW,2013-01-21 17:14:00,
2013-01-21 11:19:00,62.7,45.3,30.01,West,270,1.7,3.3,53,0.00,,,0.00,WUHU216HW,2013-01-21 17:19:00,
2013-01-21 11:24:00,62.9,44.9,30.01,SW,225,1.7,1.7,52,0.00,,,0.00,WUHU216HW,2013-01-21 17:24:00,
2013-01-21 11:29:00,62.9,44.9,30.01,WSW,248,2.9,2.9,52,0.00,,,0.00,WUHU216HW,2013-01-21 17:29:00,
2013-01-21 11:34:00,62.7,44.8,30.00,WSW,248,4.0,4.0,52,0.00,,,0.00,WUHU216HW,2013-01-21 17:34:00,
2013-01-21 11:39:00,63.1,45.1,30.00,SW,225,1.1,4.0,52,0.00,,,0.00,WUHU216HW,2013-01-21 17:39:00,
2013-01-21 11:44:00,63.1,45.1,30.00,West,270,2.4,4.0,52,0.00,,,0.00,WUHU216HW,2013-01-21 17:44:00,
2013-01-21 11:49:00,62.6,44.6,30.00,West,270,1.5,8.0,52,0.00,,,0.00,WUHU216HW,2013-01-21 17:49:00,
2013-01-21 11:54:00,62.7,44.8,29.99,WSW,248,3.1,8.0,52,0.00,,,0.00,WUHU216HW,2013-01-21 17:54:00,
2013-01-21 11:59:00,62.7,44.8,29.99,WSW,248,0.8,4.9,52,0.00,,,0.00,WUHU216HW,2013-01-21 17:59:00,
2013-01-21 12:04:00,62.9,45.4,29.99,SW,225,0.0,2.4,53,0.00,,,0.00,WUHU216HW,2013-01-21 18:04:00,
2013-01-21 12:09:00,63.1,45.1,29.99,NW,315,0.6,2.9,52,0.00,,,0.00,WUHU216HW,2013-01-21 18:09:00,
2013-01-21 12:14:00,63.5,45.9,29.99,West,270,1.5,3.8,53,0.00,,,0.00,WUHU216HW,2013-01-21 18:14:00,
2013-01-21 12:19:00,64.0,45.9,29.98,WSW,248,3.3,3.8,52,0.00,,,0.00,WUHU216HW,2013-01-21 18:19:00,
2013-01-21 12:24:00,64.2,46.1,29.98,West,270,1.7,3.8,52,0.00,,,0.00,WUHU216HW,2013-01-21 18:24:00,
2013-01-21 12:29:00,64.4,46.2,29.98,SSW,203,0.0,3.3,52,0.00,,,0.00,WUHU216HW,2013-01-21 18:29:00,
2013-01-21 12:34:00,65.1,47.0,29.98,South,180,2.9,3.8,52,0.00,,,0.00,WUHU216HW,2013-01-21 18:34:00,
2013-01-21 12:39:00,65.3,46.7,29.97,South,180,2.6,3.8,51,0.00,,,0.00,WUHU216HW,2013-01-21 18:39:00,
2013-01-21 12:44:00,65.4,46.8,29.97,South,180,1.5,2.9,51,0.00,,,0.00,WUHU216HW,2013-01-21 18:44:00,
2013-01-21 12:49:00,65.8,46.7,29.97,SSE,158,1.3,1.7,50,0.00,,,0.00,WUHU216HW,2013-01-21 18:49:00,
2013-01-21 12:54:00,66.0,47.4,29.97,SE,135,1.3,1.7,51,0.00,,,0.00,WUHU216HW,2013-01-21 18:54:00,
2013-01-21 12:59:00,66.3,47.2,29.96,SSE,158,0.0,1.3,50,0.00,,,0.00,WUHU216HW,2013-01-21 18:59:00,
2013-01-21 13:04:00,67.1,47.9,29.96,SSE,158,0.0,1.5,50,0.00,,,0.00,WUHU216HW,2013-01-21 19:04:00,
2013-01-21 13:09:00,67.6,47.8,29.96,SE,135,0.0,3.5,49,0.00,,,0.00,WUHU216HW,2013-01-21 19:09:00,
2013-01-21 13:14:00,67.8,47.9,29.95,SE,135,1.3,3.5,49,0.00,,,0.00,WUHU216HW,2013-01-21 19:14:00,
2013-01-21 13:19:00,68.0,48.1,29.95,East,90,0.0,1.3,49,0.00,,,0.00,WUHU216HW,2013-01-21 19:19:00,
2013-01-21 13:24:00,68.3,48.4,29.95,East,90,0.0,1.1,49,0.00,,,0.00,WUHU216HW,2013-01-21 19:24:00,
2013-01-21 13:29:00,68.9,48.9,29.94,ESE,113,0.0,0.0,49,0.00,,,0.00,WUHU216HW,2013-01-21 19:29:00,
2013-01-21 13:34:00,69.4,48.8,29.94,SW,225,0.0,2.2,48,0.00,,,0.00,WUHU216HW,2013-01-21 19:34:00,
2013-01-21 13:39:00,69.6,48.4,29.94,SSE,158,1.3,2.2,47,0.00,,,0.00,WUHU216HW,2013-01-21 19:39:00,
2013-01-21 13:44:00,69.8,47.9,29.94,SSE,158,0.0,1.3,46,0.00,,,0.00,WUHU216HW,2013-01-21 19:44:00,
2013-01-21 13:49:00,70.1,48.9,29.94,ESE,113,2.2,2.2,47,0.00,,,0.00,WUHU216HW,2013-01-21 19:49:00,
2013-01-21 13:54:00,70.3,49.0,29.94,ENE,68,0.0,2.2,47,0.00,,,0.00,WUHU216HW,2013-01-21 19:54:00,
2013-01-21 13:59:00,70.7,49.3,29.94,ESE,113,0.8,2.4,47,0.00,,,0.00,WUHU216HW,2013-01-21 19:59:00,
2013-01-21 14:04:00,71.2,48.0,29.94,SE,135,6.4,6.4,44,0.00,,,0.00,WUHU216HW,2013-01-21 20:04:00,
2013-01-21 14:09:00,71.4,47.6,29.94,ESE,113,2.0,6.4,43,0.00,,,0.00,WUHU216HW,2013-01-21 20:09:00,
2013-01-21 14:14:00,71.7,47.9,29.94,ESE,113,0.0,6.4,43,0.00,,,0.00,WUHU216HW,2013-01-21 20:14:00,
2013-01-21 14:19:00,72.1,48.3,29.94,ESE,113,7.6,7.6,43,0.00,,,0.00,WUHU216HW,2013-01-21 20:19:00,
2013-01-21 14:24:00,71.7,47.9,29.94,South,180,0.6,7.6,43,0.00,,,0.00,WUHU216HW,2013-01-21 20:24:00,
2013-01-21 14:29:00,71.7,47.3,29.93,SSE,158,2.4,7.6,42,0.00,,,0.00,WUHU216HW,2013-01-21 20:29:00,
2013-01-21 14:34:00,71.4,47.0,29.93,South,180,1.3,5.1,42,0.00,,,0.00,WUHU216HW,2013-01-21 20:34:00,
2013-01-21 14:39:00,71.4,47.6,29.93,SE,135,1.1,3.8,43,0.00,,,0.00,WUHU216HW,2013-01-21 20:39:00,
2013-01-21 14:44:00,71.4,47.6,29.93,SSW,203,3.1,3.1,43,0.00,,,0.00,WUHU216HW,2013-01-21 20:44:00,
2013-01-21 14:49:00,71.7,47.3,29.93,SW,225,0.6,3.1,42,0.00,,,0.00,WUHU216HW,2013-01-21 20:49:00,
2013-01-21 14:54:00,72.3,47.8,29.93,SSW,203,1.3,3.1,42,0.00,,,0.00,WUHU216HW,2013-01-21 20:54:00,
2013-01-21 14:59:00,72.6,47.6,29.93,SSE,158,3.8,3.8,41,0.00,,,0.00,WUHU216HW,2013-01-21 20:59:00,
2013-01-21 15:04:00,73.2,47.4,29.93,SSE,158,1.7,3.8,40,0.00,,,0.00,WUHU216HW,2013-01-21 21:04:00,
2013-01-21 15:09:00,73.9,48.1,29.93,South,180,2.9,2.9,40,0.00,,,0.00,WUHU216HW,2013-01-21 21:09:00,
2013-01-21 15:14:00,74.1,47.5,29.93,SW,225,0.6,2.9,39,0.00,,,0.00,WUHU216HW,2013-01-21 21:14:00,
2013-01-21 15:19:00,75.0,47.6,29.93,South,180,0.0,2.0,38,0.00,,,0.00,WUHU216HW,2013-01-21 21:19:00,
2013-01-21 15:24:00,75.7,49.0,29.93,ESE,113,0.0,2.0,39,0.00,,,0.00,WUHU216HW,2013-01-21 21:24:00,
2013-01-21 15:29:00,77.5,49.2,29.93,ESE,113,0.0,4.4,38,0.00,,,0.00,WUHU216HW,2013-01-21 21:29:00,
2013-01-21 15:34:00,78.0,49.5,29.93,ESE,113,0.0,4.4,37,0.00,,,0.00,WUHU216HW,2013-01-21 21:34:00,
2013-01-21 15:39:00,77.7,49.2,29.93,ESE,113,4.2,4.2,37,0.00,,,0.00,WUHU216HW,2013-01-21 21:39:00,
2013-01-21 15:44:00,77.7,49.2,29.92,ENE,68,5.1,5.1,37,0.00,,,0.00,WUHU216HW,2013-01-21 21:44:00,
2013-01-21 15:49:00,78.6,50.0,29.92,East,90,0.0,5.1,37,0.00,,,0.00,WUHU216HW,2013-01-21 21:49:00,
2013-01-21 15:54:00,79.5,49.2,29.92,ESE,113,0.0,5.1,35,0.00,,,0.00,WUHU216HW,2013-01-21 21:54:00,
2013-01-21 15:59:00,80.4,48.5,29.92,ESE,113,2.9,3.3,33,0.00,,,0.00,WUHU216HW,2013-01-21 21:59:00,
2013-01-21 16:04:00,81.1,48.3,29.92,ESE,113,1.7,3.1,32,0.00,,,0.00,WUHU216HW,2013-01-21 22:04:00,
2013-01-21 16:09:00,81.3,48.5,29.92,North,0,0.0,2.9,32,0.00,,,0.00,WUHU216HW,2013-01-21 22:09:00,
2013-01-21 16:14:00,80.9,48.2,29.92,ESE,113,4.4,4.4,32,0.00,,,0.00,WUHU216HW,2013-01-21 22:14:00,
2013-01-21 16:19:00,79.3,46.8,29.92,ESE,113,3.1,4.4,32,0.00,,,0.00,WUHU216HW,2013-01-21 22:19:00,
2013-01-21 16:24:00,78.2,46.6,29.92,SE,135,0.4,4.4,33,0.00,,,0.00,WUHU216HW,2013-01-21 22:24:00,
2013-01-21 16:29:00,77.5,46.0,29.92,SE,135,0.0,3.1,33,0.00,,,0.00,WUHU216HW,2013-01-21 22:29:00,
2013-01-21 16:34:00,76.1,45.5,29.92,East,90,0.8,3.1,34,0.00,,,0.00,WUHU216HW,2013-01-21 22:34:00,
2013-01-21 16:39:00,75.0,46.0,29.92,NNE,23,0.0,3.1,36,0.00,,,0.00,WUHU216HW,2013-01-21 22:39:00,
2013-01-21 16:44:00,74.1,45.2,29.92,ESE,113,0.0,3.8,36,0.00,,,0.00,WUHU216HW,2013-01-21 22:44:00,
2013-01-21 16:49:00,73.2,45.2,29.92,North,0,0.0,3.8,37,0.00,,,0.00,WUHU216HW,2013-01-21 22:49:00,
2013-01-21 16:54:00,72.3,45.1,29.92,ENE,68,0.0,0.6,38,0.00,,,0.00,WUHU216HW,2013-01-21 22:54:00,
2013-01-21 16:59:00,71.2,44.2,29.92,North,0,4.0,4.0,38,0.00,,,0.00,WUHU216HW,2013-01-21 22:59:00,
2013-01-21 17:04:00,70.7,44.4,29.92,East,90,2.4,4.0,39,0.00,,,0.00,WUHU216HW,2013-01-21 23:04:00,
2013-01-21 17:09:00,70.3,44.9,29.92,North,0,1.7,4.0,40,0.00,,,0.00,WUHU216HW,2013-01-21 23:09:00,
2013-01-21 17:14:00,69.4,44.6,29.92,NNE,23,3.8,3.8,41,0.00,,,0.00,WUHU216HW,2013-01-21 23:14:00,
2013-01-21 17:19:00,68.7,44.6,29.92,NNE,23,5.3,5.3,42,0.00,,,0.00,WUHU216HW,2013-01-21 23:19:00,
2013-01-21 17:24:00,68.3,44.9,29.91,NNE,23,2.9,5.3,43,0.00,,,0.00,WUHU216HW,2013-01-21 23:24:00,
2013-01-21 17:29:00,67.8,45.0,29.92,NNE,23,1.5,5.3,44,0.00,,,0.00,WUHU216HW,2013-01-21 23:29:00,
2013-01-21 17:34:00,67.2,44.5,29.92,ENE,68,5.3,5.3,44,0.00,,,0.00,WUHU216HW,2013-01-21 23:34:00,
2013-01-21 17:39:00,66.9,44.7,29.92,East,90,0.0,5.3,45,0.00,,,0.00,WUHU216HW,2013-01-21 23:39:00,
2013-01-21 17:44:00,66.5,45.0,29.92,ENE,68,1.1,5.3,46,0.00,,,0.00,WUHU216HW,2013-01-21 23:44:00,
2013-01-21 17:49:00,66.0,44.5,29.92,NE,45,0.0,1.1,46,0.00,,,0.00,WUHU216HW,2013-01-21 23:49:00,
2013-01-21 17:54:00,65.4,44.0,29.92,ENE,68,0.2,1.3,46,0.00,,,0.00,WUHU216HW,2013-01-21 23:54:00,
2013-01-21 17:59:00,64.9,44.1,29.92,ESE,113,0.0,1.3,47,0.00,,,0.00,WUHU216HW,2013-01-21 23:59:00,
2013-01-21 18:04:00,64.5,43.7,29.92,ENE,68,0.0,1.5,47,0.00,,,0.00,WUHU216HW,2013-01-22 00:04:00,
2013-01-21 18:09:00,64.2,44.0,29.93,NNE,23,0.0,4.9,48,0.00,,,0.00,WUHU216HW,2013-01-22 00:09:00,
2013-01-21 18:14:00,63.6,44.0,29.93,NNE,23,0.0,4.9,49,0.00,,,0.00,WUHU216HW,2013-01-22 00:14:00,
2013-01-21 18:19:00,63.3,43.7,29.93,NE,45,0.0,0.4,49,0.00,,,0.00,WUHU216HW,2013-01-22 00:19:00,
2013-01-21 18:24:00,63.1,44.1,29.93,NE,45,0.0,0.0,50,0.00,,,0.00,WUHU216HW,2013-01-22 00:24:00,
2013-01-21 18:29:00,62.4,43.5,29.93,NE,45,0.0,1.5,50,0.00,,,0.00,WUHU216HW,2013-01-22 00:29:00,
2013-01-21 18:34:00,62.0,43.7,29.93,NE,45,0.0,1.5,51,0.00,,,0.00,WUHU216HW,2013-01-22 00:34:00,
2013-01-21 18:39:00,61.8,44.0,29.94,ENE,68,0.0,0.0,52,0.00,,,0.00,WUHU216HW,2013-01-22 00:39:00,
2013-01-21 18:44:00,61.1,43.8,29.94,ESE,113,0.0,0.0,53,0.00,,,0.00,WUHU216HW,2013-01-22 00:44:00,
2013-01-21 18:49:00,60.6,43.3,29.94,ESE,113,0.0,0.0,53,0.00,,,0.00,WUHU216HW,2013-01-22 00:49:00,
2013-01-21 18:54:00,60.4,43.6,29.94,ESE,113,0.0,0.0,54,0.00,,,0.00,WUHU216HW,2013-01-22 00:54:00,
2013-01-21 18:59:00,59.9,43.6,29.94,ESE,113,0.0,0.0,55,0.00,,,0.00,WUHU216HW,2013-01-22 00:59:00,
2013-01-21 19:04:00,59.7,43.9,29.94,ESE,113,0.0,0.0,56,0.00,,,0.00,WUHU216HW,2013-01-22 01:04:00,
2013-01-21 19:09:00,59.5,44.2,29.94,ESE,113,0.0,0.4,57,0.00,,,0.00,WUHU216HW,2013-01-22 01:09:00,
2013-01-21 19:14:00,59.1,43.8,29.94,ESE,113,0.0,0.4,57,0.00,,,0.00,WUHU216HW,2013-01-22 01:14:00,
2013-01-21 19:19:00,58.8,43.5,29.94,ESE,113,0.0,0.0,57,0.00,,,0.00,WUHU216HW,2013-01-22 01:19:00,
2013-01-21 19:24:00,58.8,44.0,29.94,ESE,113,0.0,0.0,58,0.00,,,0.00,WUHU216HW,2013-01-22 01:24:00,
2013-01-21 19:29:00,58.2,43.5,29.94,ESE,113,0.0,0.0,58,0.00,,,0.00,WUHU216HW,2013-01-22 01:29:00,
2013-01-21 19:34:00,58.1,43.3,29.95,ESE,113,0.0,0.0,58,0.00,,,0.00,WUHU216HW,2013-01-22 01:34:00,
2013-01-21 19:39:00,57.9,43.7,29.95,ESE,113,0.0,0.0,59,0.00,,,0.00,WUHU216HW,2013-01-22 01:39:00,
2013-01-21 19:44:00,57.5,43.8,29.95,ESE,113,0.0,0.0,60,0.00,,,0.00,WUHU216HW,2013-01-22 01:44:00,
2013-01-21 19:49:00,57.3,43.6,29.95,East,90,0.0,0.0,60,0.00,,,0.00,WUHU216HW,2013-01-22 01:49:00,
2013-01-21 19:54:00,57.2,43.5,29.95,ESE,113,0.0,0.0,60,0.00,,,0.00,WUHU216HW,2013-01-22 01:54:00,
2013-01-21 19:59:00,57.0,43.7,29.95,East,90,0.0,0.0,61,0.00,,,0.00,WUHU216HW,2013-01-22 01:59:00,
2013-01-21 20:04:00,57.0,43.7,29.96,ENE,68,2.4,2.4,61,0.00,,,0.00,WUHU216HW,2013-01-22 02:04:00,
2013-01-21 20:09:00,57.0,43.7,29.96,ESE,113,2.4,2.4,61,0.00,,,0.00,WUHU216HW,2013-01-22 02:09:00,
2013-01-21 20:14:00,57.0,43.7,29.96,ESE,113,1.3,2.4,61,0.00,,,0.00,WUHU216HW,2013-01-22 02:14:00,
2013-01-21 20:19:00,57.0,43.3,29.96,East,90,0.0,1.3,60,0.00,,,0.00,WUHU216HW,2013-01-22 02:19:00,
2013-01-21 20:24:00,57.0,43.7,29.96,East,90,0.0,1.5,61,0.00,,,0.00,WUHU216HW,2013-01-22 02:24:00,
2013-01-21 20:29:00,56.8,43.5,29.96,East,90,2.6,2.6,61,0.00,,,0.00,WUHU216HW,2013-01-22 02:29:00,
2013-01-21 20:34:00,56.6,43.3,29.97,ESE,113,1.7,2.6,61,0.00,,,0.00,WUHU216HW,2013-01-22 02:34:00,
2013-01-21 20:39:00,56.4,43.1,29.97,East,90,0.0,2.6,61,0.00,,,0.00,WUHU216HW,2013-01-22 02:39:00,
2013-01-21 20:44:00,56.1,42.8,29.97,East,90,0.0,0.6,61,0.00,,,0.00,WUHU216HW,2013-01-22 02:44:00,
2013-01-21 20:49:00,55.9,42.6,29.97,East,90,0.0,0.0,61,0.00,,,0.00,WUHU216HW,2013-01-22 02:49:00,
2013-01-21 20:54:00,55.7,42.4,29.97,East,90,0.0,0.0,61,0.00,,,0.00,WUHU216HW,2013-01-22 02:54:00,
2013-01-21 20:59:00,55.4,42.1,29.97,East,90,0.0,0.0,61,0.00,,,0.00,WUHU216HW,2013-01-22 02:59:00,
2013-01-21 21:04:00,55.2,41.9,29.97,East,90,0.0,0.0,61,0.00,,,0.00,WUHU216HW,2013-01-22 03:04:00,
2013-01-21 21:09:00,55.2,41.9,29.97,East,90,0.0,0.0,61,0.00,,,0.00,WUHU216HW,2013-01-22 03:09:00,
2013-01-21 21:14:00,54.6,41.8,29.96,East,90,0.0,0.0,62,0.00,,,0.00,WUHU216HW,2013-01-22 03:14:00,
2013-01-21 21:19:00,54.5,41.7,29.96,East,90,0.0,0.0,62,0.00,,,0.00,WUHU216HW,2013-01-22 03:19:00,
2013-01-21 21:24:00,54.3,41.5,29.96,East,90,0.0,0.0,62,0.00,,,0.00,WUHU216HW,2013-01-22 03:24:00,
2013-01-21 21:29:00,53.7,41.4,29.96,East,90,0.0,0.0,63,0.00,,,0.00,WUHU216HW,2013-01-22 03:29:00,
2013-01-21 21:34:00,53.4,41.5,29.97,East,90,0.0,0.0,64,0.00,,,0.00,WUHU216HW,2013-01-22 03:34:00,
2013-01-21 21:39:00,53.4,41.5,29.97,East,90,0.0,0.0,64,0.00,,,0.00,WUHU216HW,2013-01-22 03:39:00,
2013-01-21 21:44:00,52.8,40.5,29.97,East,90,0.0,0.0,63,0.00,,,0.00,WUHU216HW,2013-01-22 03:44:00,
2013-01-21 21:49:00,52.7,40.4,29.97,East,90,0.0,0.0,63,0.00,,,0.00,WUHU216HW,2013-01-22 03:49:00,
2013-01-21 21:54:00,52.3,40.0,29.97,East,90,0.0,0.0,63,0.00,,,0.00,WUHU216HW,2013-01-22 03:54:00,
2013-01-21 21:59:00,52.1,39.8,29.97,East,90,0.0,0.0,63,0.00,,,0.00,WUHU216HW,2013-01-22 03:59:00,
2013-01-21 22:04:00,51.9,39.7,29.97,East,90,0.0,0.0,63,0.00,,,0.00,WUHU216HW,2013-01-22 04:04:00,
2013-01-21 22:09:00,51.8,39.9,29.97,East,90,0.0,0.0,64,0.00,,,0.00,WUHU216HW,2013-01-22 04:09:00,
2013-01-21 22:14:00,51.6,39.7,29.97,East,90,0.0,0.0,64,0.00,,,0.00,WUHU216HW,2013-01-22 04:14:00,
2013-01-21 22:19:00,51.4,39.6,29.97,East,90,0.0,0.0,64,0.00,,,0.00,WUHU216HW,2013-01-22 04:19:00,
2013-01-21 22:24:00,51.0,39.2,29.97,East,90,0.0,0.0,64,0.00,,,0.00,WUHU216HW,2013-01-22 04:24:00,
2013-01-21 22:29:00,50.9,39.5,29.97,East,90,0.0,0.0,65,0.00,,,0.00,WUHU216HW,2013-01-22 04:29:00,
2013-01-21 22:34:00,50.7,39.3,29.97,East,90,0.0,0.0,65,0.00,,,0.00,WUHU216HW,2013-01-22 04:34:00,
2013-01-21 22:39:00,50.7,39.3,29.97,East,90,0.0,0.0,65,0.00,,,0.00,WUHU216HW,2013-01-22 04:39:00,
2013-01-21 22:44:00,50.3,39.3,29.98,East,90,0.0,0.0,66,0.00,,,0.00,WUHU216HW,2013-01-22 04:44:00,
2013-01-21 22:49:00,50.3,39.3,29.98,East,90,0.0,0.0,66,0.00,,,0.00,WUHU216HW,2013-01-22 04:49:00,
2013-01-21 22:54:00,50.1,39.2,29.98,East,90,0.0,0.0,66,0.00,,,0.00,WUHU216HW,2013-01-22 04:54:00,
2013-01-21 22:59:00,49.8,38.8,29.98,East,90,0.0,0.0,66,0.00,,,0.00,WUHU216HW,2013-01-22 04:59:00,
2013-01-21 23:00:00,49.8,38.8,29.98,East,90,0.0,0.0,66,0.00,,,0.00,WUHU216HW,2013-01-22 05:00:00,
2013-01-21 23:01:00,49.8,38.8,29.98,East,90,0.0,0.0,66,0.00,,,0.00,WUHU216HW,2013-01-22 05:01:00,
2013-01-21 23:06:00,49.6,39.0,29.98,East,90,0.0,0.0,67,0.00,,,0.00,WUHU216HW,2013-01-22 05:06:00,
2013-01-21 23:11:00,49.6,39.0,29.97,East,90,0.0,0.0,67,0.00,,,0.00,WUHU216HW,2013-01-22 05:11:00,
2013-01-21 23:16:00,49.4,38.9,29.97,East,90,0.0,0.0,67,0.00,,,0.00,WUHU216HW,2013-01-22 05:16:00,
2013-01-21 23:21:00,49.2,38.7,29.97,East,90,0.0,0.0,67,0.00,,,0.00,WUHU216HW,2013-01-22 05:21:00,
2013-01-21 23:26:00,49.2,39.1,29.97,East,90,0.0,0.0,68,0.00,,,0.00,WUHU216HW,2013-01-22 05:26:00,
2013-01-21 23:31:00,49.1,38.9,29.97,East,90,0.0,0.0,68,0.00,,,0.00,WUHU216HW,2013-01-22 05:31:00,
2013-01-21 23:36:00,48.7,38.6,29.98,East,90,0.0,0.0,68,0.00,,,0.00,WUHU216HW,2013-01-22 05:36:00,
2013-01-21 23:41:00,48.7,38.9,29.98,East,90,0.0,0.0,69,0.00,,,0.00,WUHU216HW,2013-01-22 05:41:00,
2013-01-21 23:46:00,48.3,38.6,29.98,East,90,0.0,0.0,69,0.00,,,0.00,WUHU216HW,2013-01-22 05:46:00,
2013-01-21 23:51:00,48.2,38.4,29.98,East,90,0.0,0.0,69,0.00,,,0.00,WUHU216HW,2013-01-22 05:51:00,
2013-01-21 23:56:00,48.0,38.2,29.98,East,90,0.0,0.0,69,0.00,,,0.00,WUHU216HW,2013-01-22 05:56:00,